TimeEST,TemperatureF,Dew PointF,Humidity,Sea Level PressureIn,VisibilityMPH,Wind Direction,Wind SpeedMPH,Gust SpeedMPH,PrecipitationIn,Events,Conditions,WindDirDegrees,DateUTC
12:53 AM,15.1,-0.0,51,29.94,10.0,West,11.5,23.0,N/A,,Clear,280,2013-02-18 05:53:00
1:53 AM,16.0,1.0,52,29.97,10.0,WNW,16.1,21.9,N/A,,Clear,290,2013-02-18 06:53:00
2:53 AM,16.0,-0.0,49,29.97,10.0,West,13.8,25.3,N/A,,Clear,280,2013-02-18 07:53:00
4:53 AM,15.1,-0.0,51,30.04,10.0,West,8.1,17.3,N/A,,Clear,280,2013-02-18 09:53:00
5:53 AM,15.1,-0.0,51,30.08,10.0,West,10.4,16.1,N/A,,Clear,280,2013-02-18 10:53:00
7:53 AM,17.1,1.9,52,30.15,10.0,WNW,9.2,-,N/A,,Clear,290,2013-02-18 12:53:00
8:53 AM,19.0,1.9,47,30.18,10.0,NW,10.4,19.6,N/A,,Clear,310,2013-02-18 13:53:00
9:53 AM,21.0,3.0,46,30.19,10.0,WNW,8.1,-,N/A,,Clear,290,2013-02-18 14:53:00
10:53 AM,24.1,1.9,38,30.19,10.0,WNW,10.4,19.6,N/A,,Clear,300,2013-02-18 15:53:00
11:53 AM,27.0,3.0,36,30.19,10.0,WNW,11.5,25.3,N/A,,Clear,290,2013-02-18 16:53:00
12:53 PM,28.0,3.9,36,30.18,10.0,West,16.1,21.9,N/A,,Clear,270,2013-02-18 17:53:00
1:53 PM,30.0,3.9,33,30.16,10.0,NW,8.1,21.9,N/A,,Clear,310,2013-02-18 18:53:00
2:53 PM,32.0,5.0,32,30.15,10.0,WNW,9.2,18.4,N/A,,Clear,290,2013-02-18 19:53:00
3:53 PM,30.9,6.1,35,30.17,10.0,West,12.7,19.6,N/A,,Clear,270,2013-02-18 20:53:00
4:53 PM,30.9,5.0,33,30.17,10.0,West,5.8,-,N/A,,Clear,280,2013-02-18 21:53:00
5:53 PM,30.0,6.1,36,30.18,10.0,SW,4.6,-,N/A,,Clear,230,2013-02-18 22:53:00
7:53 PM,25.0,10.9,55,30.20,10.0,SW,3.5,-,N/A,,Clear,220,2013-02-19 00:53:00
8:53 PM,21.0,12.0,68,30.21,10.0,SW,4.6,-,N/A,,Clear,230,2013-02-19 01:53:00
9:53 PM,23.0,12.0,63,30.20,10.0,Calm,Calm,-,N/A,,Clear,0,2013-02-19 02:53:00
10:53 PM,21.9,14.0,72,30.20,10.0,Calm,Calm,-,N/A,,Clear,0,2013-02-19 03:53:00
11:53 PM,26.1,10.9,53,30.22,10.0,Calm,Calm,-,N/A,,Clear,0,2013-02-19 04:53:00